Simultaneous Nadir Overpasses (SNOs) Predictions

Prediction of SNOs between GOES-14 and NOAA-20 Satellite Orbit:

Table of predicted SNOs for the next 14.0 days since TLE Epoch: 11/23/2024
Index Date Time (GOES-14) GOES-14 Lat,Lon NOAA-20 Lat,Lon Distance(km) Time Diff (sec)
1 11/23/2024 20:19:32 0.03,-108.53 0.95,-104.48 461.11 80
2 11/25/2024 08:43:56 -0.01,-108.58 0.27,-109.73 131.63 80
3 11/26/2024 08:22:31 -0.02,-108.58 -0.78,-105.20 384.68 80
4 11/27/2024 20:47:04 -0.01,-108.51 -0.48,-110.49 225.56 80
5 11/28/2024 20:25:39 0.00,-108.51 0.58,-105.96 291.03 80
6 11/30/2024 08:50:03 0.03,-108.57 0.62,-111.21 301.37 80
7 12/01/2024 08:28:36 0.01,-108.56 -0.38,-106.67 214.63 80
8 12/02/2024 20:53:11 -0.04,-108.48 -0.80,-111.97 396.69 80
9 12/03/2024 20:31:44 -0.03,-108.48 0.21,-107.43 119.35 80
10 12/05/2024 08:56:09 0.05,-108.53 0.98,-112.68 473.22 80
11 12/06/2024 08:34:42 0.04,-108.52 -0.04,-108.15 42.51 80
